Location: Asheville, NC
(35.6000°N, 82.5500°W)
Time: 15:22:42
(UTC-04:00)

AO-7 - Pass Details

Date: 12 March 2018
Orbit: 1440 x 1458 km, 101.7° (Epoch: 24 June)

Event Time Altitude Azimuth Distance (km) Brightness Sun altitude
Rises 05:13:45 0° 16° (NNE) 4,544 ? -31.1°
Reaches altitude 10° 05:16:32 10° 17° (NNE) 3,561 ? -30.6°
Maximum altitude 05:24:52 90° 102° (ESE) 1,444 ? -29.0°
Enters shadow 05:28:58 35° 198° (SSW) 2,163 ? -28.2°
